Location: Schommer Observatory
(40.5200°N, 74.4500°W)
Time: 07:50:41
(UTC-05:00)

ISS - Pass Details

Date: 10 November 2017
Orbit: 402 x 407 km, 51.6° (Epoch: 22 November)

Event Time Altitude Azimuth Distance (km) Brightness Sun altitude
Exits shadow 04:37:51 11° 18° (NNE) 1,414 -0.9 -23.1°
Drops below altitude 10° 04:38:10 10° 23° (NNE) 1,457 -0.8 -23.0°
Sets 04:41:22 0° 58° (ENE) 2,316 0.9 -22.4°
